Home > Weather > North Bay > Past weeks

Flag for Canada Past Weather in North Bay, Ontario, Canada — Yesterday and Last 2 Weeks

Now
75 °F

Scattered clouds.


Feels Like: 78 °F
Forecast: 62 / 78 °F
Wind: 5 mph from North

Location: North Bay

Current Time: Jul 23, 2016 at 9:05:27 PM

Latest Report: Jul 23, 2016 at 8:00 PM


Visibility: 30 mi

Pressure: 29.98 "Hg

Humidity: 54%

Dew Point: 57 °F

Location of North BayLocation

Past Weather in North Bay — Graph

°F

North Bay Temperature Yesterday

Maximum temperature yesterday: 84 °F (at 3:00 PM)
Minimum temperature yesterday: 64 °F (at 5:00 AM)
Average temperature yesterday: 71 °F

High & Low Weather Summary for the Past Weeks

 TemperatureHumidityPressure
High86 °F (Jul 12, 4:00 PM)100% (Jul 20, 6:00 AM)30.25 "Hg (Jul 20, 6:00 AM)
Low48 °F (Jul 16, 6:00 AM)41% (Jul 10, 3:00 PM)29.61 "Hg (Jul 14, 2:00 PM)
Average67 °F75%29.94 "Hg
* Reported Jul 8 8:00 PM — Jul 23 8:00 PM, North Bay, Weather by CustomWeather, © 2016

Note: Actual official high and low records may vary slightly from our data, if they occured in-between our weather recording intervals... More about our weather records

Advertising

North Bay Weather History for the Previous 24 Hours

Scroll right to see more
 ConditionsComfort  
Time TempWeatherWind HumidityBarometerVisibility
8:00 PM
Sat, Jul 23
75 °FScattered clouds.5 mph54%29.98 "Hg30 mi
7:00 PM79 °FScattered clouds.8 mph45%29.98 "Hg30 mi
6:00 PM77 °FPartly sunny.10 mph51%29.98 "Hg30 mi
5:00 PM81 °FPartly sunny.12 mph42%29.98 "Hg30 mi
4:00 PM79 °FPartly sunny.10 mph48%29.95 "Hg30 mi
3:00 PM77 °FPartly sunny.9 mph54%29.96 "Hg30 mi
2:00 PM75 °FPartly sunny.10 mph57%29.95 "Hg30 mi
1:00 PM73 °FPartly sunny.12 mph61%29.96 "Hg30 mi
12:00 PM73 °FScattered clouds.12 mph65%29.96 "Hg30 mi
11:00 AM70 °FScattered clouds.8 mph78%29.93 "Hg30 mi
10:00 AM66 °FSprinkles. Partly sunny.10 mph88%29.93 "Hg30 mi
9:00 AM66 °FBroken clouds.14 mph88%29.92 "Hg30 mi
8:00 AM66 °FOvercast.9 mph83%29.89 "Hg30 mi
7:00 AM63 °FPartly sunny.7 mph94%29.88 "Hg30 mi
6:00 AM63 °FClear.5 mph88%29.87 "Hg9 mi
5:00 AM63 °FClear.5 mph88%29.87 "Hg9 mi
4:00 AM64 °FOvercast.6 mph88%29.85 "Hg9 mi
3:00 AM63 °FPassing clouds.3 mph94%29.85 "Hg9 mi
2:00 AM64 °FPassing clouds.5 mph88%29.83 "Hg9 mi
1:00 AM66 °FOvercast.5 mph88%29.84 "Hg9 mi
12:00 AM66 °FPassing clouds.3 mph88%29.85 "Hg9 mi
11:00 PM
Fri, Jul 22
66 °FPassing clouds.2 mph94%29.84 "Hg9 mi
10:00 PM68 °FPassing clouds.3 mph88%29.84 "Hg15 mi
9:00 PM66 °FPartly sunny.7 mph88%29.83 "Hg30 mi
Weather by CustomWeather, © 2016

See weather overviewHow to use our weather pages